Wahoo, NE

4:32 AM CDT on April 25, 2018 (GMT -0500)
Wahoo Municipal

Weather History for KAHQ - May, 2014

Change the Weather History Date:

Sunday, May 4, 2014

  Actual Average Record
Temperature  
Mean Temperature 59 °F -  
Max Temperature 70 °F 71 °F 89 °F (1966)
Min Temperature 48 °F 45 °F 31 °F (1967)
Degree Days  
Heating Degree Days 6    
Growing Degree Days 9 (Base 50)    
Moisture  
Dew Point 38 °F    
Average Humidity 50    
Maximum Humidity 71    
Minimum Humidity 32    
Precipitation  
Precipitation 0.00 in - - ()
Sea Level Pressure  
Sea Level Pressure 29.88 in    
Wind  
Wind Speed 11 mph (ENE)    
Max Wind Speed 25 mph    
Max Gust Speed 32 mph    
Visibility 10 miles    
Events      
Averages and records for this station are not official NWS values.
T = Trace of Precipitation, MM = Missing Value Source: NWS Daily Summary

Daily Weather History Graph

Daily Weather History Graph

Search for Another Location

Airport or City:

Astronomy

May. 04, 2014 Rise Set
Actual Time 6:20 AM CDT 8:26 PM CDT
Civil Twilight 5:49 AM CDT 8:57 PM CDT
Nautical Twilight 5:12 AM CDT 9:34 PM CDT
Astronomical Twilight 4:32 AM CDT 10:15 PM CDT
Moon 10:45 AM CDT (5/4) 12:33 AM CDT (5/4)
Length of Visible Light 15h 07m
Length of Day
14h 06m
Waxing Crescent, 28% of the Moon is Illuminated
May 4
Waxing Crescent
May 6
First Quarter
May 14
Full
May 21
Last Quarter
May 28
New

Hourly Weather History & Observations

Time (CDT) Temp. Dew Point Humidity Pressure Visibility Wind Dir Wind Speed Gust Speed Precip Events Conditions
12:15 AM 53.6 °F 41.2 °F 63% 29.93 in 10.0 mi NNE 3.5 mph - N/A   Clear
12:35 AM 52.9 °F 41.0 °F 64% 29.94 in 10.0 mi NE 4.6 mph - N/A   Clear
12:55 AM 51.6 °F 40.6 °F 66% 29.94 in 10.0 mi ENE 4.6 mph - N/A   Clear
1:15 AM 51.8 °F 40.6 °F 66% 29.95 in 10.0 mi NE 5.8 mph - N/A   Clear
1:35 AM 50.0 °F 40.3 °F 69% 29.93 in 10.0 mi ENE 5.8 mph - N/A   Clear
1:55 AM 50.9 °F 41.2 °F 69% 29.91 in 10.0 mi East 8.1 mph - N/A   Clear
2:15 AM 50.9 °F 41.4 °F 70% 29.92 in 10.0 mi NE 3.5 mph - N/A   Scattered Clouds
2:35 AM 51.1 °F 41.9 °F 71% 29.91 in 10.0 mi ENE 8.1 mph - N/A   Scattered Clouds
2:55 AM 52.0 °F 41.2 °F 67% 29.92 in 10.0 mi ESE 5.8 mph - N/A   Scattered Clouds
3:15 AM 52.0 °F 40.6 °F 65% 29.94 in 10.0 mi North 9.2 mph - N/A   Scattered Clouds
3:35 AM 51.4 °F 41.0 °F 68% 29.92 in 5.0 mi ENE 6.9 mph - N/A   Haze
3:55 AM 52.0 °F 40.1 °F 64% 29.92 in 10.0 mi NNE 11.5 mph - N/A   Scattered Clouds
4:15 AM 51.1 °F 39.0 °F 63% 29.95 in 10.0 mi NNE 8.1 mph - N/A   Scattered Clouds
4:35 AM 48.9 °F 38.7 °F 68% 29.92 in 10.0 mi ENE 9.2 mph - N/A   Clear
4:55 AM 50.2 °F 38.3 °F 64% 29.93 in 10.0 mi NE 8.1 mph - N/A   Clear
5:15 AM 50.7 °F 37.6 °F 61% 29.93 in 10.0 mi NE 10.4 mph 16.1 mph N/A   Clear
5:35 AM 49.8 °F 37.4 °F 62% 29.94 in 10.0 mi NE 10.4 mph - N/A   Clear
5:55 AM 49.6 °F 37.2 °F 62% 29.91 in 10.0 mi ENE 12.7 mph - N/A   Clear
6:15 AM 50.4 °F 36.0 °F 58% 29.89 in 10.0 mi East 11.5 mph - N/A   Scattered Clouds
6:35 AM 50.4 °F 35.4 °F 57% 29.92 in 10.0 mi ENE 10.4 mph - N/A   Clear
6:55 AM 49.5 °F 36.0 °F 60% 29.92 in 10.0 mi NE 11.5 mph 17.3 mph N/A   Clear
7:15 AM 49.5 °F 36.3 °F 61% 29.95 in 3.0 mi NNE 15.0 mph 18.4 mph N/A   Haze
7:35 AM 50.0 °F 35.6 °F 58% 29.95 in 10.0 mi ENE 17.3 mph 21.9 mph N/A   Scattered Clouds
7:55 AM 50.0 °F 34.7 °F 56% 29.94 in 10.0 mi ENE 17.3 mph 25.3 mph N/A   Scattered Clouds
8:15 AM 50.2 °F 34.5 °F 55% 29.96 in 10.0 mi NE 17.3 mph 25.3 mph N/A   Clear
8:35 AM 50.0 °F 34.5 °F 55% 29.91 in 10.0 mi East 19.6 mph 27.6 mph N/A   Clear
8:55 AM 50.7 °F 35.1 °F 55% 29.95 in 10.0 mi ENE 19.6 mph 29.9 mph N/A   Clear
9:15 AM 52.0 °F 34.3 °F 51% 29.96 in 10.0 mi ENE 25.3 mph - N/A   Clear
9:35 AM 52.7 °F 34.5 °F 50% 29.96 in 10.0 mi ENE 24.2 mph 31.1 mph N/A   Clear
9:55 AM 54.5 °F 34.5 °F 47% 29.95 in 10.0 mi East 25.3 mph - N/A   Clear
10:15 AM 55.9 °F 34.7 °F 45% 29.95 in 10.0 mi East 17.3 mph 27.6 mph N/A   Clear
10:35 AM 56.8 °F 34.7 °F 43% 29.94 in 10.0 mi East 19.6 mph 29.9 mph N/A   Clear
10:55 AM 57.2 °F 34.7 °F 43% 29.93 in 10.0 mi East 21.9 mph 32.2 mph N/A   Clear
11:15 AM 58.1 °F 35.4 °F 43% 29.94 in 10.0 mi ENE 20.7 mph 29.9 mph N/A   Clear
11:35 AM 59.0 °F 35.4 °F 41% 29.93 in 10.0 mi ENE 21.9 mph 26.5 mph N/A   Clear
11:55 AM 59.5 °F 36.0 °F 41% 29.92 in 10.0 mi ENE 19.6 mph 28.8 mph N/A   Clear
12:15 PM 61.0 °F 35.8 °F 39% 29.92 in 10.0 mi East 21.9 mph 31.1 mph N/A   Clear
12:35 PM 61.5 °F 36.1 °F 39% 29.91 in 10.0 mi East 16.1 mph 26.5 mph N/A   Clear
12:55 PM 61.3 °F 36.3 °F 39% 29.91 in 10.0 mi East 20.7 mph 25.3 mph N/A   Clear
1:15 PM 62.6 °F 36.3 °F 38% 29.90 in 10.0 mi East 21.9 mph 28.8 mph N/A   Clear
1:35 PM 62.8 °F 36.3 °F 37% 29.90 in 10.0 mi ENE 17.3 mph 26.5 mph N/A   Clear
1:55 PM 64.2 °F 37.0 °F 37% 29.88 in 10.0 mi East 19.6 mph 27.6 mph N/A   Clear
2:15 PM 64.8 °F 36.5 °F 35% 29.87 in 10.0 mi East 23.0 mph 28.8 mph N/A   Clear
2:35 PM 64.9 °F 36.5 °F 35% 29.87 in 10.0 mi East 20.7 mph 28.8 mph N/A   Clear
2:55 PM 66.4 °F 36.9 °F 34% 29.86 in 10.0 mi East 19.6 mph 26.5 mph N/A   Clear
3:15 PM 66.7 °F 37.0 °F 33% 29.86 in 10.0 mi East 17.3 mph 24.2 mph N/A   Clear
3:35 PM 66.9 °F 37.2 °F 34% 29.86 in 10.0 mi ENE 17.3 mph 21.9 mph N/A   Clear
3:55 PM 67.5 °F 38.1 °F 34% 29.84 in 10.0 mi East 18.4 mph 23.0 mph N/A   Clear
4:15 PM 69.3 °F 37.9 °F 32% 29.83 in 10.0 mi East 18.4 mph 26.5 mph N/A   Clear
4:35 PM 68.9 °F 37.9 °F 32% 29.83 in 10.0 mi East 17.3 mph 24.2 mph N/A   Clear
4:55 PM 70.0 °F 38.5 °F 32% 29.83 in 10.0 mi East 18.4 mph 26.5 mph N/A   Clear
5:15 PM 68.2 °F 38.1 °F 33% 29.83 in 10.0 mi East 12.7 mph 24.2 mph N/A   Clear
5:35 PM 68.2 °F 38.3 °F 33% 29.83 in 10.0 mi East 12.7 mph 18.4 mph N/A   Clear
5:55 PM 68.0 °F 38.8 °F 34% 29.82 in 10.0 mi East 16.1 mph - N/A   Clear
6:15 PM 69.8 °F 38.8 °F 32% 29.81 in 10.0 mi East 18.4 mph 21.9 mph N/A   Clear
6:35 PM 68.7 °F 39.2 °F 34% 29.79 in 10.0 mi East 17.3 mph 21.9 mph N/A   Clear
6:55 PM 68.0 °F 39.2 °F 35% 29.79 in 10.0 mi East 18.4 mph 21.9 mph N/A   Clear
7:15 PM 66.9 °F 39.9 °F 37% 29.79 in 10.0 mi East 12.7 mph - N/A   Clear
7:35 PM 67.5 °F 40.1 °F 37% 29.80 in 10.0 mi East 13.8 mph - N/A   Clear
7:55 PM 66.2 °F 40.5 °F 39% 29.79 in 10.0 mi ENE 10.4 mph - N/A   Clear
8:15 PM 63.9 °F 40.8 °F 43% 29.79 in 10.0 mi East 8.1 mph - N/A   Clear
8:35 PM 62.1 °F 40.8 °F 46% 29.79 in 10.0 mi East 8.1 mph - N/A   Clear
8:55 PM 60.1 °F 41.2 °F 50% 29.80 in 10.0 mi ENE 6.9 mph - N/A   Clear
9:15 PM 56.7 °F 41.0 °F 56% 29.80 in 10.0 mi NE 8.1 mph - N/A   Clear
9:35 PM 54.1 °F 40.6 °F 60% 29.81 in 10.0 mi NNE 8.1 mph - N/A   Clear
9:55 PM 53.8 °F 41.5 °F 63% 29.81 in 10.0 mi NE 10.4 mph - N/A   Clear
10:15 PM 55.0 °F 41.2 °F 60% 29.82 in 10.0 mi NE 9.2 mph - N/A   Clear
10:35 PM 55.2 °F 41.2 °F 59% 29.81 in 10.0 mi NE 10.4 mph - N/A   Clear
10:55 PM 54.7 °F 41.0 °F 60% 29.81 in 10.0 mi NE 8.1 mph - N/A   Clear
11:15 PM 53.2 °F 41.0 °F 63% 29.81 in 10.0 mi NE 9.2 mph - N/A   Clear
11:35 PM 53.6 °F 41.0 °F 62% 29.80 in 10.0 mi East 10.4 mph - N/A   Clear
11:55 PM 53.8 °F 41.0 °F 62% 29.80 in 10.0 mi ENE 8.1 mph - N/A   Clear